MPH7221 GCXO-LPMA

Flight info

Callsign MPH7221
Flight time 0h 54m
Altitude 34000
Route BIMBO DCT EKNOT
Aircraft B742/H-SDFHIRWXY/L

Departure

Time 2026-05-05 05:23
Airport Tenerife Norte-Ciudad de La Laguna Airport (GCXO)

Arrival

Time 2026-05-05 06:17
Airport Cristiano Ronaldo International Airport (LPMA)
Time Latitude Longitude Altitude Speed Heading
2026-05-05 04:58 28.48490 -16.34185 2028 ft 0 kts 20°
2026-05-05 05:11 28.48482 -16.34188 2028 ft 2 kts 20°
2026-05-05 05:12 28.48468 -16.34193 2029 ft 2 kts 20°
2026-05-05 05:12 28.48459 -16.34197 2030 ft 2 kts 20°
2026-05-05 05:12 28.48445 -16.34201 2031 ft 2 kts
2026-05-05 05:12 28.48430 -16.34203 2031 ft 2 kts
2026-05-05 05:13 28.48415 -16.34201 2032 ft 2 kts 351°
2026-05-05 05:13 28.48404 -16.34198 2032 ft 1 kts 345°
2026-05-05 05:13 28.48403 -16.34198 2032 ft 0 kts 344°
2026-05-05 05:17 28.48406 -16.34199 2032 ft 1 kts 344°
2026-05-05 05:17 28.48415 -16.34205 2032 ft 1 kts 317°
2026-05-05 05:17 28.48420 -16.34214 2033 ft 1 kts 295°
2026-05-05 05:17 28.48422 -16.34221 2034 ft 0 kts 282°
2026-05-05 05:18 28.48425 -16.34234 2034 ft 0 kts 282°
2026-05-05 05:18 28.48425 -16.34236 2035 ft 1 kts 281°
2026-05-05 05:18 28.48432 -16.34294 2039 ft 12 kts 281°
2026-05-05 05:18 28.48467 -16.34408 2046 ft 14 kts 293°
2026-05-05 05:19 28.48494 -16.34495 2052 ft 8 kts 288°
2026-05-05 05:19 28.48514 -16.34555 2055 ft 9 kts 290°
2026-05-05 05:19 28.48545 -16.34650 2059 ft 16 kts 290°
2026-05-05 05:19 28.48593 -16.34797 2066 ft 23 kts 290°
2026-05-05 05:20 28.48648 -16.34960 2071 ft 20 kts 291°
2026-05-05 05:20 28.48695 -16.35103 2071 ft 18 kts 291°
2026-05-05 05:20 28.48741 -16.35240 2068 ft 18 kts 292°
2026-05-05 05:20 28.48787 -16.35377 2067 ft 18 kts 291°
2026-05-05 05:21 28.48825 -16.35491 2065 ft 1 kts 290°
2026-05-05 05:21 28.48829 -16.35503 2065 ft 4 kts 291°
2026-05-05 05:22 28.48854 -16.35575 2063 ft 14 kts 291°
2026-05-05 05:22 28.48868 -16.35704 2062 ft 16 kts 248°
2026-05-05 05:22 28.48797 -16.35748 2065 ft 6 kts 154°
2026-05-05 05:22 28.48788 -16.35735 2065 ft 1 kts 112°
2026-05-05 05:23 28.48774 -16.35692 2065 ft 13 kts 110°
2026-05-05 05:23 28.48677 -16.35388 2071 ft 81 kts 111°
2026-05-05 05:23 28.48371 -16.34465 2064 ft 165 kts 110°
2026-05-05 05:23 28.47957 -16.33144 2761 ft 183 kts 109°
2026-05-05 05:24 28.47557 -16.31825 3833 ft 184 kts 108°
2026-05-05 05:24 28.47169 -16.30434 4824 ft 192 kts 108°
2026-05-05 05:24 28.46781 -16.28999 5575 ft 210 kts 107°
2026-05-05 05:24 28.46392 -16.27401 6464 ft 211 kts 106°
2026-05-05 05:25 28.46001 -16.25770 6990 ft 219 kts 108°
2026-05-05 05:25 28.45537 -16.24039 7345 ft 241 kts 110°
2026-05-05 05:25 28.45003 -16.22156 7881 ft 259 kts 110°
2026-05-05 05:25 28.44464 -16.20196 8602 ft 267 kts 109°
2026-05-05 05:26 28.43912 -16.18135 9342 ft 276 kts 110°
2026-05-05 05:26 28.43355 -16.16053 10173 ft 280 kts 109°
2026-05-05 05:26 28.42854 -16.13928 11065 ft 280 kts 110°
2026-05-05 05:26 28.42292 -16.11890 11731 ft 287 kts 113°
2026-05-05 05:27 28.41612 -16.09714 12318 ft 299 kts 115°
2026-05-05 05:27 28.40865 -16.07472 13051 ft 304 kts 116°
2026-05-05 05:27 28.39736 -16.02894 14654 ft 316 kts 94°
2026-05-05 05:28 28.40107 -16.00399 15193 ft 330 kts 68°
2026-05-05 05:28 28.41268 -15.98340 15724 ft 336 kts 42°
2026-05-05 05:28 28.43203 -15.96731 15866 ft 355 kts 22°
2026-05-05 05:28 28.45590 -15.95792 15999 ft 370 kts
2026-05-05 05:29 28.48209 -15.95637 16138 ft 383 kts 348°
2026-05-05 05:29 28.50754 -15.96333 16865 ft 373 kts 331°
2026-05-05 05:29 28.52962 -15.97738 17719 ft 360 kts 315°
2026-05-05 05:29 28.54602 -15.99564 18358 ft 353 kts 300°
2026-05-05 05:30 28.55793 -16.01932 19120 ft 344 kts 287°
2026-05-05 05:30 28.56696 -16.04450 19854 ft 347 kts 288°
2026-05-05 05:30 28.57983 -16.06794 20569 ft 360 kts 303°
2026-05-05 05:30 28.59899 -16.08764 21187 ft 379 kts 318°
2026-05-05 05:31 28.62290 -16.10162 21838 ft 395 kts 330°
2026-05-05 05:31 28.64858 -16.11283 22532 ft 397 kts 330°
2026-05-05 05:31 28.67435 -16.12498 23077 ft 401 kts 327°
2026-05-05 05:31 28.70021 -16.13734 23780 ft 408 kts 333°
2026-05-05 05:32 28.72861 -16.14427 24341 ft 429 kts 347°
2026-05-05 05:32 28.75885 -16.14382 24958 ft 445 kts 358°
2026-05-05 05:32 28.78981 -16.13810 25569 ft 455 kts
2026-05-05 05:32 28.82066 -16.12968 26143 ft 463 kts
2026-05-05 05:33 28.85197 -16.12004 26704 ft 468 kts
2026-05-05 05:33 28.88401 -16.10990 27207 ft 475 kts
2026-05-05 05:33 28.91594 -16.09987 27703 ft 480 kts
2026-05-05 05:33 28.94804 -16.08989 28232 ft 483 kts
2026-05-05 05:34 28.98095 -16.07974 28774 ft 487 kts
2026-05-05 05:34 29.01353 -16.06975 29264 ft 491 kts
2026-05-05 05:34 29.04710 -16.05951 29655 ft 497 kts
2026-05-05 05:34 29.08020 -16.04938 30118 ft 501 kts
2026-05-05 05:35 29.11395 -16.03900 30713 ft 501 kts
2026-05-05 05:35 29.14791 -16.02857 31149 ft 504 kts
2026-05-05 05:35 29.18168 -16.01822 31555 ft 508 kts
2026-05-05 05:35 29.21608 -16.00764 32053 ft 509 kts
2026-05-05 05:36 29.25065 -15.99701 32465 ft 513 kts
2026-05-05 05:36 29.28532 -15.98635 32929 ft 516 kts
2026-05-05 05:36 29.31967 -15.97577 33322 ft 519 kts
2026-05-05 05:36 29.35475 -15.96497 33715 ft 523 kts
2026-05-05 05:37 29.39059 -15.95394 33959 ft 531 kts
2026-05-05 05:37 29.42623 -15.94300 34012 ft 541 kts
2026-05-05 05:37 29.46298 -15.93171 34022 ft 552 kts
2026-05-05 05:37 29.50080 -15.92005 34021 ft 563 kts
2026-05-05 05:38 29.57733 -15.89632 34024 ft 574 kts
2026-05-05 05:38 29.65473 -15.87220 34026 ft 576 kts
2026-05-05 05:39 29.69297 -15.86023 34026 ft 565 kts
2026-05-05 05:39 29.73066 -15.84843 34024 ft 559 kts
2026-05-05 05:39 29.80532 -15.82528 34024 ft 564 kts
2026-05-05 05:40 29.88075 -15.80183 34026 ft 564 kts
2026-05-05 05:40 29.95682 -15.77946 34026 ft 555 kts
2026-05-05 05:41 29.99449 -15.77538 34033 ft 543 kts 351°
2026-05-05 05:41 30.03207 -15.77697 34031 ft 534 kts 345°
2026-05-05 05:41 30.10507 -15.78854 34029 ft 527 kts 341°
2026-05-05 05:42 30.17696 -15.80264 34031 ft 524 kts 341°
2026-05-05 05:42 30.24797 -15.81616 34031 ft 527 kts 341°
2026-05-05 05:43 30.31989 -15.82938 34036 ft 524 kts 341°
2026-05-05 05:43 30.39221 -15.84259 34031 ft 523 kts 342°
2026-05-05 05:44 30.46468 -15.85584 34031 ft 524 kts 342°
2026-05-05 05:44 30.53685 -15.86908 34037 ft 527 kts 342°
2026-05-05 05:45 30.60892 -15.88228 34033 ft 524 kts 342°
2026-05-05 05:45 30.68097 -15.89552 34036 ft 522 kts 343°
2026-05-05 05:46 30.75310 -15.90881 34038 ft 524 kts 343°
2026-05-05 05:46 30.82322 -15.92174 34029 ft 522 kts 343°
2026-05-05 05:47 30.89512 -15.93502 34034 ft 523 kts 343°
2026-05-05 05:47 30.96710 -15.94834 34031 ft 522 kts 343°
2026-05-05 05:48 31.03860 -15.96157 34044 ft 522 kts 343°
2026-05-05 05:48 31.10927 -15.97468 34055 ft 521 kts 344°
2026-05-05 05:49 31.18160 -15.98814 34045 ft 523 kts 345°
2026-05-05 05:49 31.25113 -16.00107 34036 ft 523 kts 345°
2026-05-05 05:50 31.32282 -16.01442 34044 ft 521 kts 345°
2026-05-05 05:50 31.39440 -16.02835 34041 ft 519 kts 343°
2026-05-05 05:51 31.46456 -16.04794 34043 ft 516 kts 339°
2026-05-05 05:51 31.53302 -16.07095 33696 ft 498 kts 338°
2026-05-05 05:52 31.56557 -16.08221 33153 ft 476 kts 338°
2026-05-05 05:52 31.59677 -16.09307 32614 ft 458 kts 338°
2026-05-05 05:52 31.62682 -16.10356 32062 ft 441 kts 338°
2026-05-05 05:52 31.65554 -16.11361 31517 ft 427 kts 338°
2026-05-05 05:53 31.68342 -16.12337 30968 ft 413 kts 338°
2026-05-05 05:53 31.71077 -16.13293 30420 ft 401 kts 338°
2026-05-05 05:53 31.73700 -16.14209 29883 ft 390 kts 338°
2026-05-05 05:53 31.76251 -16.15099 29348 ft 379 kts 338°
2026-05-05 05:54 31.78759 -16.15975 28808 ft 370 kts 338°
2026-05-05 05:54 31.81219 -16.16837 28291 ft 371 kts 339°
2026-05-05 05:54 31.83734 -16.17718 27753 ft 381 kts 339°
2026-05-05 05:54 31.86308 -16.18618 27219 ft 387 kts 339°
2026-05-05 05:55 31.88887 -16.19519 26564 ft 391 kts 340°
2026-05-05 05:55 31.91514 -16.20434 25893 ft 393 kts 340°
2026-05-05 05:55 31.94136 -16.21347 25232 ft 395 kts 340°
2026-05-05 05:55 31.96785 -16.22272 24568 ft 397 kts 340°
2026-05-05 05:56 31.99426 -16.23195 23908 ft 398 kts 341°
2026-05-05 05:56 32.01963 -16.24082 23256 ft 396 kts 341°
2026-05-05 05:56 32.04583 -16.24997 22611 ft 384 kts 341°
2026-05-05 05:56 32.07038 -16.25855 21988 ft 374 kts 341°
2026-05-05 05:57 32.09409 -16.26685 21374 ft 364 kts 340°
2026-05-05 05:57 32.11799 -16.27525 20739 ft 356 kts 340°
2026-05-05 05:57 32.14147 -16.28349 20103 ft 348 kts 340°
2026-05-05 05:57 32.16429 -16.29146 19476 ft 341 kts 340°
2026-05-05 05:58 32.18708 -16.29925 18828 ft 334 kts 340°
2026-05-05 05:58 32.20918 -16.30668 18207 ft 328 kts 340°
2026-05-05 05:58 32.23072 -16.31388 17591 ft 323 kts 340°
2026-05-05 05:58 32.25234 -16.32111 16969 ft 319 kts 340°
2026-05-05 05:59 32.27344 -16.32816 16353 ft 315 kts 340°
2026-05-05 05:59 32.29431 -16.33513 15740 ft 311 kts 340°
2026-05-05 05:59 32.31515 -16.34209 15091 ft 308 kts 340°
2026-05-05 05:59 32.33551 -16.34890 14430 ft 305 kts 340°
2026-05-05 06:00 32.35410 -16.35512 13836 ft 304 kts 340°
2026-05-05 06:00 32.37450 -16.36195 13169 ft 302 kts 340°
2026-05-05 06:00 32.39445 -16.36863 12519 ft 300 kts 341°
2026-05-05 06:00 32.41356 -16.37504 11893 ft 297 kts 341°
2026-05-05 06:01 32.43353 -16.38174 11224 ft 296 kts 341°
2026-05-05 06:01 32.45316 -16.38831 10565 ft 294 kts 342°
2026-05-05 06:01 32.47269 -16.39486 9906 ft 293 kts 342°
2026-05-05 06:01 32.49220 -16.40141 9245 ft 292 kts 343°
2026-05-05 06:02 32.51162 -16.40793 8581 ft 291 kts 343°
2026-05-05 06:02 32.53114 -16.41450 7909 ft 289 kts 344°
2026-05-05 06:02 32.55019 -16.42091 7342 ft 284 kts 345°
2026-05-05 06:02 32.56907 -16.42722 6767 ft 279 kts 345°
2026-05-05 06:03 32.58769 -16.43349 6258 ft 273 kts 345°
2026-05-05 06:03 32.60569 -16.43954 5750 ft 268 kts 346°
2026-05-05 06:03 32.62334 -16.44549 5373 ft 261 kts 346°
2026-05-05 06:03 32.64102 -16.45143 4989 ft 263 kts 346°
2026-05-05 06:04 32.65853 -16.45732 4625 ft 262 kts 346°
2026-05-05 06:04 32.67625 -16.46328 4250 ft 262 kts 346°
2026-05-05 06:04 32.69381 -16.46920 3874 ft 262 kts 346°
2026-05-05 06:04 32.71086 -16.47495 3514 ft 262 kts 347°
2026-05-05 06:05 32.72842 -16.48087 3146 ft 262 kts 346°
2026-05-05 06:05 32.74581 -16.48674 2890 ft 256 kts 347°
2026-05-05 06:05 32.76270 -16.49245 2812 ft 244 kts 347°
2026-05-05 06:05 32.77834 -16.49931 2802 ft 243 kts 334°
2026-05-05 06:06 32.79253 -16.51092 2800 ft 246 kts 321°
2026-05-05 06:06 32.80486 -16.52486 2804 ft 247 kts 315°
2026-05-05 06:06 32.81666 -16.54003 2809 ft 247 kts 313°
2026-05-05 06:06 32.82776 -16.55501 2807 ft 236 kts 313°
2026-05-05 06:07 32.83711 -16.57024 2787 ft 223 kts 290°
2026-05-05 06:07 32.83843 -16.58815 2801 ft 214 kts 258°
2026-05-05 06:07 32.83333 -16.60435 2793 ft 204 kts 237°
2026-05-05 06:07 32.82559 -16.61734 2795 ft 198 kts 226°
2026-05-05 06:08 32.81616 -16.62907 2798 ft 194 kts 222°
2026-05-05 06:08 32.80553 -16.63849 2786 ft 187 kts 190°
2026-05-05 06:08 32.79400 -16.63776 2789 ft 179 kts 149°
2026-05-05 06:08 32.78608 -16.62712 2789 ft 172 kts 103°
2026-05-05 06:09 32.78776 -16.61325 2793 ft 177 kts 57°
2026-05-05 06:09 32.79676 -16.60315 2795 ft 179 kts 42°
2026-05-05 06:09 32.80655 -16.59404 2791 ft 178 kts 41°
2026-05-05 06:09 32.81634 -16.58495 2788 ft 178 kts 41°
2026-05-05 06:10 32.82547 -16.57652 2791 ft 177 kts 41°
2026-05-05 06:10 32.83533 -16.56745 2793 ft 178 kts 41°
2026-05-05 06:10 32.84516 -16.55839 2792 ft 177 kts 41°
2026-05-05 06:10 32.85491 -16.54933 2784 ft 177 kts 41°
2026-05-05 06:11 32.86663 -16.54482 2791 ft 188 kts 357°
2026-05-05 06:11 32.87842 -16.55182 2784 ft 198 kts 311°
2026-05-05 06:11 32.88323 -16.56697 2789 ft 200 kts 266°
2026-05-05 06:11 32.87828 -16.58195 2792 ft 195 kts 225°
2026-05-05 06:12 32.86758 -16.59136 2785 ft 188 kts 192°
2026-05-05 06:12 32.85496 -16.59571 2672 ft 194 kts 203°
2026-05-05 06:12 32.84375 -16.60458 2466 ft 191 kts 214°
2026-05-05 06:12 32.83356 -16.61425 2257 ft 178 kts 216°
2026-05-05 06:13 32.82446 -16.62344 2073 ft 170 kts 217°
2026-05-05 06:13 32.81554 -16.63267 1871 ft 168 kts 218°
2026-05-05 06:13 32.80699 -16.64166 1657 ft 158 kts 218°
2026-05-05 06:13 32.79932 -16.65069 1463 ft 151 kts 221°
2026-05-05 06:14 32.79194 -16.65921 1408 ft 148 kts 219°
2026-05-05 06:14 32.78440 -16.66760 1392 ft 149 kts 219°
2026-05-05 06:14 32.77677 -16.67595 1389 ft 147 kts 218°
2026-05-05 06:14 32.76924 -16.68411 1385 ft 147 kts 218°
2026-05-05 06:15 32.76155 -16.69240 1358 ft 148 kts 219°
2026-05-05 06:15 32.75397 -16.70104 1234 ft 152 kts 225°
2026-05-05 06:15 32.74700 -16.71015 1060 ft 146 kts 226°
2026-05-05 06:15 32.74046 -16.71958 855 ft 146 kts 231°
2026-05-05 06:16 32.73451 -16.72918 666 ft 140 kts 232°
2026-05-05 06:16 32.72844 -16.73825 585 ft 140 kts 227°
2026-05-05 06:16 32.72180 -16.74655 552 ft 140 kts 224°
2026-05-05 06:16 32.71474 -16.75452 476 ft 137 kts 223°
2026-05-05 06:17 32.70794 -16.76252 253 ft 136 kts 225°
2026-05-05 06:17 32.70149 -16.77008 188 ft 121 kts 227°
2026-05-05 06:17 32.69709 -16.77538 216 ft 59 kts 225°
2026-05-05 06:17 32.69451 -16.77832 203 ft 24 kts 225°
2026-05-05 06:18 32.69374 -16.77927 195 ft 16 kts 227°
2026-05-05 06:18 32.69291 -16.77950 182 ft 12 kts 112°
2026-05-05 06:18 32.69297 -16.77874 179 ft 9 kts 84°
2026-05-05 06:18 32.69323 -16.77817 179 ft 3 kts 50°
2026-05-05 06:19 32.69323 -16.77802 179 ft 3 kts 123°
2026-05-05 06:19 32.69294 -16.77769 172 ft 5 kts 137°
2026-05-05 06:19 32.69288 -16.77762 171 ft 0 kts 137°